Location: North Amityville
(40.6976°N, 73.4251°W)
Time: 14:09:13
(UTC+00:00)

Daily predictions for brighter satellites

Satellite Brightness Start Highest point End
(mag) Time Altitude Azimuth Time Altitude Azimuth Time Altitude Azimuth
Cosmos 841 Rocket 3.5 21:49:10 10° S 21:54:15 63° ESE 21:59:20 10° NNE
Meteor 1-25 Rocket 4.2 21:50:33 10° N 21:56:08 72° E 22:01:45 10° SSE
Cosmos 2278 4.5 21:51:27 10° N 21:56:28 30° ENE 22:01:24 10° ESE
Cosmos 1500 3.9 21:53:14 10° NNE 21:56:37 31° ENE 21:59:58 10° SE
CZ-2C R/B 2.9 21:52:49 10° SSE 21:57:44 89° ENE 22:02:31 10° NNW
Cosmos 1833 Rocket 3.2 21:52:14 10° SW 21:57:47 62° WNW 22:03:23 10° NNE
Cosmos 1634 Rocket 4.1 21:54:41 10° S 22:00:51 59° E 22:07:03 10° NNE
Cosmos 1782 2.9 21:57:19 10° S 22:01:12 54° E 22:05:06 10° NNE
H-2A R/B 2.8 21:57:24 10° SE 22:01:45 29° ENE 22:06:01 10° N
USA 267 3.4 21:55:28 10° NE 22:02:01 77° NW 22:08:32 10° SW
CZ-2D R/B 4.3 21:59:23 10° SE 22:02:31 24° ENE 22:05:40 10° NNE
Cosmos 1937 Rocket 3.5 21:58:50 10° NNW 22:04:10 72° ENE 22:09:27 10° SSE
Cosmos 2026 Rocket 4.0 21:59:48 10° N 22:05:51 61° E 22:11:49 10° SSE
Cosmos 1500 Rocket 4.1 22:02:05 10° NNW 22:06:29 66° W 22:10:48 10° S
COSMOS 2406 3.6 22:02:20 10° SSW 22:08:02 67° WNW 22:13:46 10° NNE
Cosmos 372 Rocket 4.2 22:03:11 10° N 22:08:17 49° ENE 22:13:22 10° SE
Cosmos 2195 Rocket 4.5 22:03:48 10° N 22:10:00 78° E 22:16:14 10° S
Sich 1 3.0 22:06:30 10° N 22:10:45 60° E 22:15:01 10° SSE
CZ-2C R/B 3.4 22:10:05 10° NE 22:14:32 28° E 22:18:56 10° SSE
Cosmos 1809 Rocket 4.4 22:10:41 10° N 22:16:48 82° E 22:22:52 10° S
Cosmos 1805 Rocket 3.6 22:14:17 10° N 22:18:39 85° W 22:22:58 10° S
USA 229 DEB 4.4 22:13:46 10° NW 22:21:10 68° WSW 22:28:57 10° SSE
USA 229 4.4 22:13:51 10° NW 22:21:16 69° WSW 22:29:03 10° SSE
Meteor 2-21 Rocket 4.5 22:16:27 10° N 22:22:26 56° E 22:28:21 10° SSE
NOAA 6 4.0 22:18:13 10° SSE 22:23:22 86° ENE 22:28:32 10° NNW
Lacrosse 5 rocket 2.7 22:21:21 10° NNW 22:24:23 21° NNE 22:26:07 16° ENE
CZ-4B R/B 3.7 22:19:38 10° SE 22:24:30 35° ENE 22:29:18 10° N
Cosmos 1666 3.1 22:22:12 10° N 22:25:42 38° ENE 22:29:10 10° SSE
PAYLOAD B 4.3 22:26:01 10° SSE 22:31:31 60° ENE 22:37:01 10° N
MOS 1-B Rocket 4.2 22:25:47 10° NNE 22:31:49 61° ESE 22:38:48 10° S
SL-24 R/B - RUBIN 2 3.4 22:28:05 10° NNW 22:32:34 83° ENE 22:36:52 10° SE
USA 234 3.3 22:27:23 10° ESE 22:33:45 58° NE 22:40:08 10° NW
PSLV R/B 3.5 22:34:51 10° SSE 22:38:31 77° ENE 22:42:16 10° N
Cosmos 2360 Rocket 3.9 22:40:39 10° NNE 22:42:46 14° NE 22:42:46 14° NE
Cosmos 921 Rocket 3.1 22:41:43 10° S 22:45:44 48° ESE 22:48:25 20° NE
Cosmos 1812 3.1 22:45:54 10° SSW 22:49:42 63° W 22:53:32 10° N
SL-08 RB Rocket 4.3 22:48:34 10° SE 22:52:40 33° ENE 22:56:47 10° N
CZ-2C R/B 2.6 22:51:13 10° SW 22:54:58 30° SSE 22:56:54 21° SE
Cosmos 1814 Rocket 4.5 22:50:38 10° SSW 22:55:47 60° WNW 23:00:56 10° NNE
COSMO-SKYMED 1 2.5 22:51:33 10° NNE 22:55:50 68° ESE 23:00:08 10° S
USA 305 4.5 22:53:20 10° NNW 22:56:25 19° NNE 22:56:38 19° NNE
Cosmos 1570 Rocket 4.3 22:52:17 10° SSW 22:57:30 68° WNW 23:02:43 10° NNE
Meteor 1-10 Rocket 4.3 22:51:56 10° S 22:57:36 59° E 23:03:10 10° NNE
CZ-4C R/B 4.2 22:59:06 25° SE 22:59:06 25° SE 23:01:08 10° SSE
COSMOS 2455 4.1 22:54:23 10° WSW 22:59:56 38° NW 23:05:32 10° NNE
Cosmos 1633 Rocket 3.0 22:55:44 10° N 23:00:08 87° W 23:04:31 10° S
Meteor 1-11 Rocket 4.0 22:56:27 10° N 23:01:48 42° ENE 23:07:13 10° SE
Cosmos 1151 Rocket 3.7 22:57:55 10° SSW 23:02:10 56° W 23:06:27 10° N
Helios 1B 4.4 22:59:18 13° NNE 23:03:13 80° ESE 23:07:32 10° S
X-37B 0.8 23:00:42 10° SW 23:03:24 48° SSE 23:03:24 48° SSE
Cosmos 2298 Rocket 4.1 22:59:57 10° N 23:05:09 51° ENE 23:10:20 10° SE
Cosmos 2322 Rocket 2.9 23:00:35 10° N 23:05:38 31° ENE 23:05:58 31° ENE
Cosmos 1980 Rocket 3.1 23:04:39 10° NNW 23:10:06 51° WSW 23:15:30 10° S
Landsat 5 3.2 23:14:49 36° NNE 23:16:22 80° ESE 23:20:17 10° S
Feng Yun 1-1 Rocket 4.4 23:11:33 10° SSE 23:17:18 55° ENE 23:23:00 10° N
DMSP B5D2-2 4.3 23:17:37 42° E 23:18:12 43° E 23:23:09 10° S
Cosmos 836 Rocket 4.5 23:13:26 10° S 23:18:38 60° ESE 23:20:21 40° NE
Cosmos 1818 3.4 23:13:20 10° NNW 23:18:49 76° ENE 23:22:57 18° SE
Meteor 2-15 Rocket 4.3 23:13:17 10° S 23:19:23 74° E 23:25:29 10° NNE
ISS -2.9 23:16:23 10° WNW 23:19:40 49° SW 23:20:29 39° S
CZ-4C R/B 3.2 23:14:03 10° NW 23:21:36 78° WSW 23:30:12 10° SSE
Cosmos 2082 Rocket 4.0 23:19:59 10° WSW 23:24:49 28° NW 23:29:39 10° N
Okean O Rocket 1.7 23:20:24 10° S 23:24:51 80° WSW 23:29:20 10° NNW
SL-16 R/B 2.2 23:19:30 10° NNW 23:25:06 57° ENE 23:27:08 37° ESE
ARGOS 3.3 23:25:18 10° S 23:30:42 75° WSW 23:36:08 10° NNW
Cosmos 1470 Rocket 3.8 23:27:03 10° NNW 23:31:29 69° W 23:35:56 10° S
Cosmos 44 Rocket 3.2 23:27:55 10° NNW 23:32:49 83° WSW 23:34:46 36° SSE
Cosmos 2266 Rocket 4.0 23:27:18 10° N 23:33:45 90° E 23:40:10 10° S
Aureole 3 Rocket 3.1 23:32:24 10° S 23:36:29 75° E 23:37:00 67° NE
Cosmos 1867 3.4 23:34:46 10° SSW 23:40:12 78° ESE 23:40:49 68° ENE
Cosmos 2333 Rocket 4.4 23:36:41 10° N 23:37:11 12° N 23:37:11 12° N
H-2A R/B 3.7 23:36:25 10° SSW 23:41:03 33° W 23:45:37 10° NNW
Cosmos 2150 Rocket 4.0 23:36:19 10° NNW 23:41:32 82° WSW 23:46:46 10° SSE
USA 32 4.1 23:43:41 10° S 23:48:54 77° W 23:51:15 34° N
Spot 2 4.3 23:44:02 10° SSE 23:49:10 86° ENE 23:54:19 10° NNW
Cosmos 1125 Rocket 3.7 23:47:43 10° NNW 23:52:57 71° WSW 23:56:50 18° S
CZ-2C R/B 4.1 23:50:12 10° N 23:54:50 34° WNW 23:59:26 10° SW
